FW7016 Weather Reports


Display with metric or nautical units.
time (UTC)temp
F
wind
direction
speed
MPH
gust
MPH
rain 1hr
in
rain 24hr
in
rain mn
in
humidity
%
barometer
mb
20260505130228 32 80 0.0 0.0 0.00 0.00 0.00 96 1014.8
20260505124719 32 81 0.0 0.0 0.00 0.00 0.00 96 1014.5
20260505124216 32 80 0.0 0.0 0.00 0.00 0.00 96 1014.7
20260505123711 32 79 0.0 0.0 0.00 0.00 0.00 96 1014.5
20260505123208 32 79 0.0 0.0 0.00 0.00 0.00 96 1014.7
20260505122705 32 78 0.0 0.0 0.00 0.00 0.00 95 1014.7
20260505122202 32 78 0.0 0.0 0.00 0.00 0.00 95 1014.4
20260505121658 32 78 0.0 0.0 0.00 0.00 0.00 96 1014.5
20260505121154 32 77 0.0 0.0 0.00 0.00 0.00 95 1014.4
20260505120651 32 77 0.0 0.0 0.00 0.00 0.00 96 1014.5
20260505120147 32 77 0.0 0.0 0.00 0.00 0.00 96 1014.3
20260505115641 32 77 0.0 0.0 0.00 0.00 0.00 95 1014.3
20260505115139 32 76 0.0 0.0 0.00 0.00 0.00 95 1014.2
20260505114630 32 76 0.0 0.0 0.00 0.00 0.00 95 1014.4
20260505114126 32 76 0.0 0.0 0.00 0.00 0.00 95 1014.2
20260505113622 32 75 0.0 0.0 0.00 0.00 0.00 95 1014.2
20260505113119 32 75 0.0 0.0 0.00 0.00 0.00 95 1014.5
20260505112615 32 75 0.0 0.0 0.00 0.00 0.00 95 1014.2
20260505112114 32 75 0.0 0.0 0.00 0.00 0.00 95 1014.2
20260505111608 32 74 0.0 0.0 0.00 0.00 0.00 95 1014.2
20260505111104 32 74 0.0 0.0 0.00 0.00 0.00 95 1014.4
20260505110601 32 74 0.0 0.0 0.00 0.00 0.00 95 1014.2
20260505102033 32 70 0.0 0.0 0.00 0.00 0.00 95 1014.2
20260505101532 32 70 0.0 0.0 0.00 0.00 0.00 95 1014.2
20260505101027 32 69 0.0 0.0 0.00 0.00 0.00 95 1014.3
20260505100525 32 68 0.0 0.0 0.00 0.00 0.00 95 1014.3
20260505100022 32 66 0.0 0.0 0.00 0.00 0.00 95 1014.3
20260505095518 32 65 0.0 0.0 0.00 0.00 0.00 95 1014.5
20260505095014 32 64 0.0 0.0 0.00 0.00 0.00 95 1014.4
20260505094511 32 62 0.0 0.0 0.00 0.00 0.00 95 1014.4
20260505094007 32 60 0.0 0.0 0.00 0.00 0.00 95 1014.8
20260505093503 32 58 0.0 0.0 0.00 0.00 0.00 95 1014.7
20260505093001 32 55 0.0 0.0 0.00 0.00 0.00 94 1014.8
20260505092458 32 53 2.0 3.0 0.00 0.00 0.00 95 1014.7
20260505091955 32 51 3.0 5.0 0.00 0.00 0.00 95 1014.8
20260505091453 32 49 4.0 6.0 0.00 0.00 0.00 94 1014.9
20260505090951 32 47 3.0 8.0 0.00 0.00 0.00 94 1014.7
20260505090449 32 49 7.0 7.0 0.00 0.00 0.00 94 1014.5
20260505085946 32 47 7.0 8.0 0.00 0.00 0.00 94 1014.5
20260505085443 32 38 6.0 7.0 0.00 0.00 0.00 94 1015.0
20260505084942 32 20 7.0 9.0 0.00 0.00 0.00 94 1014.7
20260505084440 33 38 6.0 8.0 0.00 0.00 0.00 94 1015.0
20260505083937 33 37 5.0 7.0 0.00 0.00 0.00 94 1014.8
20260505083434 33 29 5.0 7.0 0.00 0.00 0.00 94 1014.9
20260505082931 33 39 4.0 8.0 0.00 0.00 0.00 94 1014.4
20260505082426 33 58 4.0 7.0 0.00 0.00 0.00 94 1014.4
20260505081924 34 39 2.0 6.0 0.00 0.00 0.00 94 1014.5
20260505081421 34 43 6.0 10.0 0.00 0.00 0.00 93 1014.5
20260505080917 34 50 5.0 9.0 0.00 0.00 0.00 93 1014.3
20260505080413 34 24 11.0 14.0 0.00 0.00 0.00 93 1014.4
20260505075908 34 357 10.0 15.0 0.00 0.00 0.00 93 1014.5
20260505075406 34 356 9.0 11.0 0.00 0.00 0.00 93 1014.4
20260505074903 34 40 9.0 13.0 0.00 0.00 0.00 93 1014.3
20260505074400 34 38 7.0 11.0 0.00 0.00 0.00 93 1014.4
20260505073857 34 37 6.0 11.0 0.00 0.00 0.00 92 1014.3
20260505073349 34 26 7.0 11.0 0.00 0.00 0.00 92 1014.4
20260505072846 35 39 7.0 11.0 0.00 0.00 0.00 92 1014.3
20260505072342 35 0 10.0 14.0 0.00 0.00 0.00 92 1014.5
20260505071838 35 23 12.0 17.0 0.00 0.00 0.00 92 1014.5
20260505071335 35 30 8.0 14.0 0.00 0.00 0.00 91 1014.7
20260505070833 36 47 12.0 18.0 0.00 0.00 0.00 91 1014.4
20260505070329 36 1 11.0 15.0 0.00 0.00 0.00 91 1014.4
20260505065825 36 60 8.0 11.0 0.00 0.00 0.00 90 1014.2
20260505065321 36 32 12.0 15.0 0.00 0.00 0.00 90 1014.4
20260505064819 36 21 13.0 18.0 0.00 0.00 0.00 90 1014.2
20260505064316 37 26 6.0 17.0 0.00 0.00 0.00 90 1014.2
20260505063814 37 359 14.0 16.0 0.00 0.00 0.00 89 1014.2
20260505063310 37 353 12.0 16.0 0.00 0.00 0.00 89 1014.4
20260505062806 37 7 17.0 23.0 0.00 0.00 0.00 88 1014.5
20260505062304 37 350 13.0 22.0 0.00 0.00 0.00 87 1014.2
20260505061800 38 347 17.0 23.0 0.00 0.00 0.00 87 1014.2
20260505061259 38 35 14.0 21.0 0.00 0.00 0.00 87 1014.3
20260505060756 38 38 10.0 18.0 0.00 0.00 0.00 86 1014.3
20260505060253 39 358 16.0 21.0 0.00 0.00 0.00 84 1014.1
20260505055748 39 31 11.0 16.0 0.00 0.00 0.00 83 1013.8
20260505055244 40 22 14.0 25.0 0.00 0.00 0.00 80 1014.1
20260505054742 42 38 12.0 20.0 0.00 0.00 0.00 77 1013.8
20260505054239 43 68 6.0 8.0 0.00 0.00 0.00 72 1013.2
20260505053738 43 62 7.0 11.0 0.00 0.00 0.00 71 1013.6
20260505053234 44 75 3.0 11.0 0.00 0.00 0.00 68 1013.5
20260505052731 44 77 4.0 9.0 0.00 0.00 0.00 67 1013.5
20260505052228 45 63 4.0 9.0 0.00 0.00 0.00 65 1013.4
20260505051725 45 74 7.0 10.0 0.00 0.00 0.00 64 1013.2
20260505051223 45 64 6.0 9.0 0.00 0.00 0.00 65 1013.4
20260505050721 45 71 4.0 10.0 0.00 0.00 0.00 64 1013.0
20260505050219 45 59 5.0 11.0 0.00 0.00 0.00 64 1013.1
20260505041648 46 70 11.0 17.0 0.00 0.00 0.00 63 1013.1
20260505041146 47 68 8.0 15.0 0.00 0.00 0.00 63 1013.2
20260505040643 47 60 11.0 16.0 0.00 0.00 0.00 62 1013.4
20260505040140 47 58 7.0 13.0 0.00 0.00 0.00 62 1013.0
20260505035636 47 68 9.0 14.0 0.00 0.00 0.00 61 1012.9
20260505035132 47 74 4.0 9.0 0.00 0.00 0.00 62 1013.1
20260505034629 47 40 5.0 11.0 0.00 0.00 0.00 62 1012.9
20260505034126 47 46 6.0 9.0 0.00 0.00 0.00 62 1012.8
20260505033623 48 42 6.0 13.0 0.00 0.00 0.00 62 1012.9
20260505033121 48 46 5.0 13.0 0.00 0.00 0.00 61 1012.7
20260505032619 48 22 6.0 14.0 0.00 0.00 0.00 62 1012.8
20260505032115 48 42 6.0 10.0 0.00 0.00 0.00 62 1012.4
20260505031613 48 44 7.0 15.0 0.00 0.00 0.00 61 1012.5
20260505031108 48 68 5.0 13.0 0.00 0.00 0.00 61 1012.4
20260505030606 48 48 4.0 9.0 0.00 0.00 0.00 62 1012.4
20260505025557 49 50 6.0 13.0 0.00 0.00 0.00 61 1012.4
20260505025056 49 45 5.0 11.0 0.00 0.00 0.00 62 1012.4
20260505024553 48 48 6.0 8.0 0.00 0.00 0.00 63 1012.3
20260505024050 48 72 2.0 5.0 0.00 0.00 0.00 67 1012.3
20260505023547 48 59 5.0 8.0 0.00 0.00 0.00 65 1011.8
20260505023045 49 55 5.0 7.0 0.00 0.00 0.00 66 1012.2
20260505022543 50 56 5.0 11.0 0.00 0.00 0.00 64 1012.2
20260505022040 50 149 0.0 2.0 0.00 0.00 0.00 70 1011.9
20260505021536 50 147 2.0 2.0 0.00 0.00 0.00 72 1011.8
20260505021033 49 144 3.0 5.0 0.00 0.00 0.00 74 1011.9
20260505020532 50 126 5.0 6.0 0.00 0.00 0.00 76 1011.9
20260505020030 50 145 4.0 5.0 0.00 0.00 0.00 77 1012.1
20260505015527 50 140 6.0 7.0 0.00 0.00 0.00 74 1011.8
20260505015024 51 132 5.0 6.0 0.00 0.00 0.00 68 1011.8
20260505014520 51 105 0.0 1.0 0.00 0.00 0.00 66 1011.8
20260505014018 52 154 2.0 3.0 0.00 0.00 0.00 63 1011.6
20260505013515 51 142 5.0 9.0 0.00 0.00 0.00 64 1011.9
20260505013012 49 197 1.0 2.0 0.00 0.00 0.00 75 1011.9
20260505012510 49 174 4.0 9.0 0.00 0.00 0.00 72 1011.9
20260505012007 50 172 7.0 10.0 0.00 0.00 0.00 77 1011.7
20260505011503 51 159 8.0 11.0 0.00 0.00 0.00 69 1011.6
20260505011000 54 231 9.0 15.0 0.00 0.00 0.00 60 1011.5
20260505010455 55 238 2.0 6.0 0.00 0.00 0.00 50 1011.4
20260505005951 55 213 1.0 2.0 0.00 0.00 0.00 52 1011.2
20260505005448 56 191 0.0 1.0 0.00 0.00 0.00 53 1011.1
20260505004946 56 215 2.0 3.0 0.00 0.00 0.00 49 1011.0
20260505004443 56 203 3.0 5.0 0.00 0.00 0.00 47 1010.6
20260505003939 56 151 7.0 9.0 0.00 0.00 0.00 47 1010.5
20260505003437 57 73 6.0 16.0 0.00 0.00 0.00 45 1010.6
20260505002933 58 56 8.0 11.0 0.00 0.00 0.00 44 1010.4
20260505002429 58 81 7.0 9.0 0.00 0.00 0.00 40 1010.4
20260505001928 58 102 10.0 13.0 0.00 0.00 0.00 40 1010.4
20260505001425 59 80 4.0 10.0 0.00 0.00 0.00 40 1010.4
20260505000922 59 37 7.0 13.0 0.00 0.00 0.00 40 1010.3
20260505000420 59 51 1.0 9.0 0.00 0.00 0.00 39 1010.2
20260504235916 59 46 5.0 9.0 0.00 0.00 0.00 39 1010.1
20260504235414 59 46 8.0 9.0 0.00 0.00 0.00 39 1009.9
20260504234909 60 50 7.0 10.0 0.00 0.00 0.00 39 1010.2
20260504234408 60 47 5.0 13.0 0.00 0.00 0.00 39 1009.9
20260504233904 60 54 6.0 9.0 0.00 0.00 0.00 38 1010.1
20260504233359 60 114 5.0 7.0 0.00 0.00 0.00 37 1009.9
20260504232856 60 45 4.0 10.0 0.00 0.00 0.00 38 1010.1
20260504232353 61 63 5.0 14.0 0.00 0.00 0.00 37 1010.1
20260504231850 60 65 5.0 10.0 0.00 0.00 0.00 37 1009.9
20260504231346 60 95 0.0 3.0 0.00 0.00 0.00 38 1010.1
20260504230843 60 60 1.0 2.0 0.00 0.00 0.00 37 1009.8
20260504230341 61 66 4.0 8.0 0.00 0.00 0.00 37 1009.8
20260504225839 60 179 2.0 6.0 0.00 0.00 0.00 37 1010.1
20260504225335 61 227 2.0 3.0 0.00 0.00 0.00 37 1010.2
20260504224833 61 100 3.0 7.0 0.00 0.00 0.00 36 1009.8
20260504224330 61 110 8.0 9.0 0.00 0.00 0.00 36 1009.6
20260504223826 61 101 3.0 7.0 0.00 0.00 0.00 37 1009.8
20260504223322 62 96 7.0 9.0 0.00 0.00 0.00 36 1009.9
20260504222819 61 25 4.0 7.0 0.00 0.00 0.00 36 1009.7
20260504222316 61 56 6.0 8.0 0.00 0.00 0.00 37 1009.7
20260504221815 61 91 4.0 9.0 0.00 0.00 0.00 38 1009.8
20260504221310 61 46 3.0 9.0 0.00 0.00 0.00 37 1010.1
20260504220807 61 40 9.0 11.0 0.00 0.00 0.00 37 1010.1
20260504220304 61 32 11.0 11.0 0.00 0.00 0.00 37 1010.2
20260504215801 60 23 7.0 18.0 0.00 0.00 0.00 38 1010.2
20260504215258 61 51 7.0 9.0 0.00 0.00 0.00 37 1010.4
20260504214754 61 33 5.0 9.0 0.00 0.00 0.00 37 1009.9
20260504214251 60 66 5.0 9.0 0.00 0.00 0.00 38 1010.3
20260504213747 61 36 9.0 14.0 0.00 0.00 0.00 37 1010.4
20260504213243 60 30 8.0 11.0 0.00 0.00 0.00 37 1010.3
20260504212740 61 37 9.0 13.0 0.00 0.00 0.00 37 1010.5
20260504212237 61 24 15.0 24.0 0.00 0.00 0.00 37 1010.1
20260504211735 61 56 7.0 13.0 0.00 0.00 0.00 36 1010.4
20260504211231 61 9 13.0 16.0 0.00 0.00 0.00 37 1010.4
20260504210728 62 26 11.0 20.0 0.00 0.00 0.00 36 1010.5
20260504210225 61 73 2.0 10.0 0.00 0.00 0.00 37 1010.5
20260504205722 61 43 7.0 13.0 0.00 0.00 0.00 37 1010.5
20260504205220 62 33 15.0 21.0 0.00 0.00 0.00 37 1010.6
20260504204718 62 351 9.0 18.0 0.00 0.00 0.00 37 1010.4
20260504204216 62 34 12.0 17.0 0.00 0.00 0.00 37 1010.5
20260504203715 62 26 12.0 17.0 0.00 0.00 0.00 37 1010.4
20260504203212 62 16 20.0 22.0 0.00 0.00 0.00 37 1010.3
20260504202711 62 18 11.0 14.0 0.00 0.00 0.00 36 1010.5
20260504202204 62 94 5.0 10.0 0.00 0.00 0.00 37 1010.4
20260504201700 63 36 13.0 20.0 0.00 0.00 0.00 37 1010.3
20260504201158 62 341 14.0 20.0 0.00 0.00 0.00 36 1010.3
20260504200655 63 6 19.0 23.0 0.00 0.00 0.00 36 1010.6
20260504200152 63 19 13.0 20.0 0.00 0.00 0.00 36 1010.4
20260504195647 63 26 13.0 17.0 0.00 0.00 0.00 36 1010.1
20260504195144 64 12 19.0 23.0 0.00 0.00 0.00 34 1010.3
20260504194641 62 358 18.0 27.0 0.00 0.00 0.00 38 1010.2
20260504194137 65 58 15.0 18.0 0.00 0.00 0.00 36 1010.3
20260504193633 64 16 15.0 22.0 0.00 0.00 0.00 34 1010.2
20260504193132 64 68 7.0 16.0 0.00 0.00 0.00 35 1010.1
20260504192629 63 35 10.0 22.0 0.00 0.00 0.00 35 1010.2
20260504192127 64 59 17.0 25.0 0.00 0.00 0.00 36 1010.3
20260504191625 64 32 13.0 22.0 0.00 0.00 0.00 34 1010.3
20260504191121 64 355 15.0 26.0 0.00 0.00 0.00 36 1010.1
20260504190617 64 22 11.0 21.0 0.00 0.00 0.00 35 1009.8
20260504190114 64 26 17.0 25.0 0.00 0.00 0.00 34 1010.1
20260504185610 64 41 10.0 30.0 0.00 0.00 0.00 35 1010.2
20260504185107 64 11 13.0 25.0 0.00 0.00 0.00 35 1010.3
20260504184603 64 10 21.0 31.0 0.00 0.00 0.00 35 1010.2
20260504184058 64 35 11.0 24.0 0.00 0.00 0.00 35 1010.3
20260504183555 64 25 24.0 33.0 0.00 0.00 0.00 34 1010.4
20260504183054 65 40 19.0 26.0 0.00 0.00 0.00 33 1010.3
20260504182550 65 352 17.0 21.0 0.00 0.00 0.00 32 1010.3
20260504182048 64 27 18.0 27.0 0.00 0.00 0.00 34 1010.4
20260504181544 65 30 19.0 26.0 0.00 0.00 0.00 33 1010.2
20260504181043 66 359 24.0 26.0 0.00 0.00 0.00 32 1010.4
20260504180541 64 9 22.0 27.0 0.00 0.00 0.00 32 1010.4
20260504180040 65 26 20.0 24.0 0.00 0.00 0.00 31 1010.5
20260504175537 64 43 18.0 26.0 0.00 0.00 0.00 31 1010.4
20260504175034 63 9 18.0 23.0 0.00 0.00 0.00 31 1010.3
20260504174532 64 20 15.0 23.0 0.00 0.00 0.00 31 1010.3
20260504174028 64 28 31.0 35.0 0.00 0.00 0.00 30 1010.2
20260504173525 63 28 25.0 32.0 0.00 0.00 0.00 31 1010.1
20260504173022 62 72 16.0 27.0 0.00 0.00 0.00 31 1009.9
20260504172518 62 26 28.0 33.0 0.00 0.00 0.00 31 1010.2
20260504172015 64 7 23.0 39.0 0.00 0.00 0.00 31 1009.6
20260504171512 66 6 10.0 11.0 0.00 0.00 0.00 24 1009.6
20260504171009 66 38 6.0 7.0 0.00 0.00 0.00 24 1009.5
20260504170504 67 19 10.0 15.0 0.00 0.00 0.00 24 1009.5
20260504160425 66 40 3.0 9.0 0.00 0.00 0.00 24 1009.5
20260504150849 64 318 7.0 14.0 0.00 0.00 0.00 24 1009.5
20260504150345 63 359 7.0 11.0 0.00 0.00 0.00 26 1009.7
20260504141315 57 275 11.0 13.0 0.00 0.00 0.00 31 1010.2
20260504140812 57 255 10.0 13.0 0.00 0.00 0.00 32 1010.2
20260504140308 56 290 6.0 13.0 0.00 0.00 0.00 34 1009.9